EZS42WF LSGG-LPPR

Flight info

Callsign EZS42WF
Flight time N/A
Altitude 37000
Route DEPUL T544 LSE DCT RUSIT DCT ESIDA DCT LERGA DCT MINSO DCT NARAK DCT AGN DCT PIPOR DCT PPN DCT MIRPO DCT DGO DCT NEA DCT ZMR L155 ADORO DCT INKIT
Aircraft A320/M-SDE3FGHIRWY/LB1

Departure

Time 2026-05-06 08:40
Airport Geneva International Airport (LSGG)

Arrival

Time N/A
Airport Francisco de Sá Carneiro Airport (LPPR)
Time Latitude Longitude Altitude Speed Heading
2026-05-06 08:24 46.23478 6.11185 1393 ft 0 kts 135°
2026-05-06 08:29 46.23496 6.11163 1401 ft 4 kts 151°
2026-05-06 08:29 46.23516 6.11145 1395 ft 3 kts 135°
2026-05-06 08:29 46.23527 6.11117 1402 ft 4 kts 83°
2026-05-06 08:29 46.23517 6.11083 1398 ft 4 kts 49°
2026-05-06 08:30 46.23501 6.11058 1404 ft 2 kts 45°
2026-05-06 08:30 46.23499 6.11056 1404 ft 0 kts 45°
2026-05-06 08:32 46.23500 6.11057 1404 ft 1 kts 45°
2026-05-06 08:32 46.23507 6.11068 1402 ft 2 kts 45°
2026-05-06 08:32 46.23523 6.11091 1400 ft 4 kts 45°
2026-05-06 08:32 46.23547 6.11126 1401 ft 6 kts 45°
2026-05-06 08:33 46.23585 6.11163 1393 ft 9 kts 13°
2026-05-06 08:33 46.23657 6.11090 1385 ft 15 kts 323°
2026-05-06 08:33 46.23744 6.11136 1380 ft 16 kts 45°
2026-05-06 08:33 46.23820 6.11246 1376 ft 14 kts 45°
2026-05-06 08:34 46.23881 6.11335 1375 ft 11 kts 45°
2026-05-06 08:34 46.23969 6.11467 1373 ft 11 kts 46°
2026-05-06 08:34 46.24044 6.11578 1370 ft 19 kts 45°
2026-05-06 08:35 46.24145 6.11729 1365 ft 20 kts 46°
2026-05-06 08:35 46.24236 6.11863 1362 ft 17 kts 45°
2026-05-06 08:35 46.24307 6.11964 1363 ft 12 kts 45°
2026-05-06 08:35 46.24356 6.12035 1366 ft 9 kts 45°
2026-05-06 08:36 46.24397 6.12095 1368 ft 8 kts 45°
2026-05-06 08:36 46.24432 6.12147 1370 ft 7 kts 45°
2026-05-06 08:36 46.24466 6.12196 1372 ft 7 kts 45°
2026-05-06 08:36 46.24505 6.12253 1372 ft 10 kts 45°
2026-05-06 08:37 46.24573 6.12352 1371 ft 18 kts 45°
2026-05-06 08:37 46.24685 6.12520 1364 ft 28 kts 46°
2026-05-06 08:37 46.24834 6.12734 1364 ft 21 kts 27°
2026-05-06 08:37 46.24917 6.12729 1366 ft 8 kts 347°
2026-05-06 08:38 46.24950 6.12725 1368 ft 4 kts 358°
2026-05-06 08:38 46.24980 6.12718 1369 ft 7 kts 336°
2026-05-06 08:38 46.24992 6.12636 1370 ft 11 kts 235°
2026-05-06 08:38 46.24955 6.12581 1372 ft 4 kts 226°
2026-05-06 08:39 46.24868 6.12454 1372 ft 48 kts 225°
2026-05-06 08:39 46.24484 6.11890 1372 ft 107 kts 225°
2026-05-06 08:39 46.23848 6.10956 1379 ft 151 kts 225°
2026-05-06 08:39 46.23051 6.09798 1770 ft 165 kts 225°
2026-05-06 08:40 46.22250 6.08606 2457 ft 165 kts 225°
2026-05-06 08:40 46.21419 6.07384 2963 ft 179 kts 225°
2026-05-06 08:40 46.20505 6.06045 3207 ft 201 kts 224°
2026-05-06 08:40 46.19477 6.04542 3490 ft 221 kts 224°
2026-05-06 08:41 46.18336 6.02876 3854 ft 245 kts 225°
2026-05-06 08:41 46.17116 6.01095 4562 ft 252 kts 224°
2026-05-06 08:41 46.15881 5.99290 5487 ft 254 kts 225°
2026-05-06 08:41 46.14656 5.97461 6409 ft 256 kts 225°
2026-05-06 08:42 46.13437 5.95550 7125 ft 263 kts 233°
2026-05-06 08:42 46.12379 5.93396 7936 ft 265 kts 236°
2026-05-06 08:42 46.11361 5.91157 8745 ft 268 kts 237°
2026-05-06 08:42 46.10353 5.88886 9546 ft 271 kts 237°
2026-05-06 08:43 46.09322 5.86569 10224 ft 279 kts 236°
2026-05-06 08:43 46.08226 5.84129 10472 ft 302 kts 236°
2026-05-06 08:43 46.07053 5.81544 10669 ft 324 kts 236°
2026-05-06 08:43 46.05790 5.78777 11120 ft 334 kts 236°
2026-05-06 08:44 46.04501 5.75962 11762 ft 339 kts 236°
2026-05-06 08:44 46.03194 5.73116 12424 ft 343 kts 235°
2026-05-06 08:44 46.01869 5.70234 13134 ft 346 kts 236°
2026-05-06 08:44 46.00537 5.67339 13852 ft 349 kts 236°
2026-05-06 08:45 45.99187 5.64412 14465 ft 353 kts 236°
2026-05-06 08:45 45.97842 5.61500 15055 ft 356 kts 235°
2026-05-06 08:45 45.96466 5.58515 15640 ft 360 kts 236°
2026-05-06 08:45 45.95103 5.55479 16201 ft 364 kts 236°
2026-05-06 08:46 45.93745 5.52392 16766 ft 368 kts 237°
2026-05-06 08:46 45.92378 5.49254 17288 ft 373 kts 237°
2026-05-06 08:46 45.91000 5.46089 17858 ft 376 kts 237°
2026-05-06 08:46 45.89604 5.42897 18376 ft 379 kts 237°
2026-05-06 08:47 45.88190 5.39696 18844 ft 381 kts 237°
2026-05-06 08:47 45.86760 5.36468 19315 ft 385 kts 237°
2026-05-06 08:47 45.85340 5.33265 19780 ft 387 kts 237°
2026-05-06 08:47 45.83892 5.29997 20290 ft 389 kts 237°
2026-05-06 08:48 45.82433 5.26710 20750 ft 392 kts 237°
2026-05-06 08:48 45.80959 5.23403 21164 ft 396 kts 237°
2026-05-06 08:48 45.79470 5.20070 21594 ft 398 kts 237°
2026-05-06 08:48 45.77971 5.16713 22013 ft 402 kts 237°
2026-05-06 08:49 45.76457 5.13330 22402 ft 406 kts 237°
2026-05-06 08:49 45.74945 5.09958 22818 ft 409 kts 237°
2026-05-06 08:49 45.73436 5.06462 23098 ft 416 kts 238°
2026-05-06 08:49 45.71991 5.02842 23452 ft 421 kts 240°
2026-05-06 08:50 45.70589 4.99151 23801 ft 424 kts 241°
2026-05-06 08:50 45.69200 4.95420 24176 ft 426 kts 241°
2026-05-06 08:50 45.67802 4.91682 24560 ft 427 kts 240°
2026-05-06 08:50 45.66389 4.87945 24934 ft 428 kts 240°
2026-05-06 08:51 45.65019 4.84212 25276 ft 430 kts 242°
2026-05-06 08:51 45.63665 4.80396 25655 ft 431 kts 242°
2026-05-06 08:51 45.62327 4.76558 26045 ft 432 kts 242°
2026-05-06 08:51 45.60992 4.72712 26439 ft 433 kts 242°
2026-05-06 08:52 45.59649 4.68860 26833 ft 434 kts 242°
2026-05-06 08:52 45.58293 4.64999 27134 ft 437 kts 241°
2026-05-06 08:52 45.56914 4.61108 27408 ft 440 kts 241°
2026-05-06 08:52 45.55525 4.57207 27716 ft 442 kts 241°
2026-05-06 08:53 45.54123 4.53292 28037 ft 443 kts 240°
2026-05-06 08:53 45.52737 4.49433 28350 ft 445 kts 240°
2026-05-06 08:53 45.51323 4.45498 28681 ft 446 kts 240°
2026-05-06 08:53 45.49910 4.41557 28972 ft 447 kts 240°
2026-05-06 08:54 45.48495 4.37609 29322 ft 447 kts 241°
2026-05-06 08:54 45.47083 4.33686 29892 ft 442 kts 241°
2026-05-06 08:54 45.45686 4.29817 30357 ft 438 kts 240°
2026-05-06 08:54 45.44296 4.25972 30762 ft 436 kts 241°
2026-05-06 08:55 45.42907 4.22126 30980 ft 438 kts 241°
2026-05-06 08:55 45.41533 4.18320 31247 ft 438 kts 241°
2026-05-06 08:55 45.40140 4.14465 31564 ft 437 kts 241°
2026-05-06 08:55 45.38747 4.10621 31896 ft 436 kts 241°
2026-05-06 08:56 45.37356 4.06795 32237 ft 435 kts 241°
2026-05-06 08:56 45.35970 4.02983 32586 ft 433 kts 241°
2026-05-06 08:56 45.34586 3.99185 32946 ft 432 kts 241°
2026-05-06 08:56 45.33203 3.95402 33293 ft 430 kts 241°
2026-05-06 08:57 45.31825 3.91638 33645 ft 429 kts 241°
2026-05-06 08:57 45.30453 3.87891 34017 ft 425 kts 241°
2026-05-06 08:57 45.29109 3.84223 34341 ft 424 kts 241°
2026-05-06 08:57 45.27743 3.80503 34532 ft 426 kts 241°
2026-05-06 08:58 45.26373 3.76772 34742 ft 426 kts 241°
2026-05-06 08:58 45.24838 3.73186 34952 ft 425 kts 234°
2026-05-06 08:58 45.23143 3.69744 35173 ft 425 kts 234°
2026-05-06 08:58 45.21449 3.66304 35386 ft 425 kts 234°
2026-05-06 08:59 45.19754 3.62867 35596 ft 425 kts 234°
2026-05-06 08:59 45.18056 3.59432 35804 ft 425 kts 234°
2026-05-06 08:59 45.16379 3.56044 36006 ft 425 kts 234°
2026-05-06 08:59 45.14684 3.52612 36213 ft 425 kts 234°
2026-05-06 09:00 45.12986 3.49175 36413 ft 425 kts 234°
2026-05-06 09:00 45.11295 3.45761 36661 ft 423 kts 234°
2026-05-06 09:00 45.09602 3.42350 36860 ft 423 kts 234°
2026-05-06 09:01 45.06208 3.35520 36918 ft 425 kts 234°
2026-05-06 09:01 45.02822 3.28738 36919 ft 425 kts 234°
2026-05-06 09:02 44.99406 3.21911 36931 ft 425 kts 234°
2026-05-06 09:02 44.95990 3.15094 36926 ft 425 kts 234°
2026-05-06 09:03 44.92579 3.08291 36931 ft 424 kts 234°
2026-05-06 09:03 44.89191 3.01544 36934 ft 425 kts 234°
2026-05-06 09:04 44.85763 2.94752 36921 ft 426 kts 234°
2026-05-06 09:04 44.82402 2.87871 36926 ft 426 kts 236°
2026-05-06 09:05 44.79205 2.80827 36942 ft 427 kts 237°
2026-05-06 09:05 44.76038 2.73823 36944 ft 427 kts 237°
2026-05-06 09:06 44.72809 2.66806 36961 ft 427 kts 237°
2026-05-06 09:06 44.69555 2.59798 36941 ft 428 kts 237°
2026-05-06 09:07 44.66285 2.52789 36937 ft 429 kts 237°
2026-05-06 09:07 44.63026 2.45817 36955 ft 430 kts 237°
2026-05-06 09:08 44.59746 2.38780 36961 ft 431 kts 237°
2026-05-06 09:08 44.56466 2.31760 36975 ft 430 kts 237°
2026-05-06 09:09 44.53177 2.24765 36979 ft 430 kts 237°
2026-05-06 09:09 44.49883 2.17772 36974 ft 430 kts 237°
2026-05-06 09:10 44.46608 2.10833 36956 ft 430 kts 237°
2026-05-06 09:10 44.43305 2.03849 36956 ft 430 kts 237°
2026-05-06 09:11 44.39995 1.96873 36944 ft 430 kts 237°
2026-05-06 09:11 44.36692 1.89911 36961 ft 429 kts 237°
2026-05-06 09:12 44.33413 1.83018 36959 ft 429 kts 237°
2026-05-06 09:12 44.30102 1.76089 36956 ft 429 kts 237°
2026-05-06 09:13 44.26829 1.69133 36952 ft 428 kts 238°
2026-05-06 09:13 44.23637 1.62119 36955 ft 428 kts 238°
2026-05-06 09:14 44.20466 1.55155 36943 ft 428 kts 238°
2026-05-06 09:14 44.17256 1.48173 36958 ft 428 kts 238°
2026-05-06 09:15 44.14026 1.41202 36953 ft 428 kts 238°
2026-05-06 09:15 44.10789 1.34242 36953 ft 428 kts 238°
2026-05-06 09:16 44.07572 1.27327 36957 ft 428 kts 238°
2026-05-06 09:16 44.04330 1.20376 36959 ft 429 kts 238°
2026-05-06 09:17 44.01078 1.13424 36951 ft 429 kts 238°
2026-05-06 09:17 43.97821 1.06488 36964 ft 429 kts 238°
2026-05-06 09:18 43.94594 0.99595 36969 ft 428 kts 238°
2026-05-06 09:18 43.91337 0.92679 36970 ft 428 kts 237°
2026-05-06 09:19 43.88098 0.85791 36976 ft 428 kts 238°
2026-05-06 09:19 43.85019 0.78740 36976 ft 427 kts 240°
2026-05-06 09:20 43.82040 0.71622 36963 ft 427 kts 240°
2026-05-06 09:20 43.79030 0.64531 36971 ft 427 kts 240°
2026-05-06 09:21 43.75994 0.57523 36977 ft 427 kts 239°
2026-05-06 09:21 43.72930 0.50483 36983 ft 427 kts 240°
2026-05-06 09:22 43.69870 0.43459 36985 ft 427 kts 239°
2026-05-06 09:22 43.66806 0.36428 36993 ft 427 kts 240°
2026-05-06 09:23 43.63758 0.29448 36992 ft 428 kts 240°